Location: McFarlands Corners
(41.4117°N, 81.3382°W)
Time: 07:13:25
(UTC+00:00)

Tiros 1 - Pass Details

Date: 25 February 2026
Orbit: 618 x 649 km, 48.4° (Epoch: 9 March)

Event Time Altitude Azimuth Distance (km) Brightness Sun altitude
Rises 10:35:42 0° 221° (SW) 2,930 - -17.7°
Reaches altitude 10° 10:38:06 10° 215° (SW) 2,019 - -17.2°
Exits shadow 10:38:53 15° 212° (SSW) 1,733 9.0 -17.1°
Maximum altitude 10:42:32 46° 143° (SE) 853 8.0 -16.4°
Drops below altitude 10° 10:46:57 10° 70° (ENE) 2,008 10.9 -15.6°
Sets 10:49:20 0° 64° (ENE) 2,913 11.8 -15.1°
